Location: Bailen
(14.1842°N, 120.7958°E)
Time: 18:09:17
(UTC+00:00)

Atlas Centaur 2 - Pass Details

Date: 12 January 2026
Orbit: 456 x 1249 km, 30.4° (Epoch: 17 February)

Event Time Altitude Azimuth Distance (km) Brightness Sun altitude
Exits shadow 21:53:12 - 284° (WNW) 2,480 4.0 -7.9°
Reaches altitude 10° 21:53:24 10° 286° (WNW) 2,422 3.9 -7.9°
Maximum altitude 21:58:30 30° 346° (NNW) 1,638 3.4 -6.7°
Drops below altitude 10° 22:04:35 10° 44° (NE) 2,914 5.3 -5.3°
Sets 22:08:00 0° 55° (NE) 3,986 6.2 -4.5°
